Time,TemperatureF,DewpointF,PressureIn,WindDirection,WindDirectionDegrees,WindSpeedMPH,WindSpeedGustMPH,Humidity,HourlyPrecipIn,Conditions,Clouds,dailyrainin,SoftwareType,DateUTC
2013-10-08 00:10:00,48.8,47.0,30.14,SSE,165,0.0,2.0,94,0.00,,,0.00,weatherlink.com 1.10,2013-10-08 04:10:00,
2013-10-08 00:25:00,48.6,47.0,30.14,SSE,160,2.0,2.0,94,0.00,,,0.00,weatherlink.com 1.10,2013-10-08 04:25:00,
2013-10-08 00:40:00,48.5,47.0,30.14,SSE,160,2.0,2.0,94,0.00,,,0.00,weatherlink.com 1.10,2013-10-08 04:40:00,
2013-10-08 00:55:00,48.4,47.0,30.13,SSE,157,1.0,2.0,94,0.00,,,0.00,weatherlink.com 1.10,2013-10-08 04:55:00,
2013-10-08 01:10:00,48.3,47.0,30.14,SE,139,0.0,1.0,94,0.00,,,0.00,weatherlink.com 1.10,2013-10-08 05:10:00,
2013-10-08 01:25:00,48.1,47.0,30.14,SSE,157,0.0,2.0,94,0.00,,,0.00,weatherlink.com 1.10,2013-10-08 05:25:00,
2013-10-08 01:40:00,48.3,47.0,30.15,SE,142,0.0,1.0,94,0.00,,,0.00,weatherlink.com 1.10,2013-10-08 05:40:00,
2013-10-08 01:55:00,47.8,46.0,30.15,SE,142,1.0,1.0,94,0.00,,,0.00,weatherlink.com 1.10,2013-10-08 05:55:00,
2013-10-08 02:10:00,47.4,46.0,30.15,SE,142,0.0,1.0,95,0.00,,,0.00,weatherlink.com 1.10,2013-10-08 06:10:00,
2013-10-08 02:25:00,47.2,46.0,30.15,SE,142,1.0,1.0,95,0.00,,,0.00,weatherlink.com 1.10,2013-10-08 06:25:00,
2013-10-08 02:40:00,47.1,46.0,30.15,SE,143,2.0,2.0,96,0.00,,,0.00,weatherlink.com 1.10,2013-10-08 06:40:00,
2013-10-08 02:55:00,47.0,46.0,30.15,SE,142,1.0,1.0,96,0.00,,,0.00,weatherlink.com 1.10,2013-10-08 06:55:00,
2013-10-08 03:10:00,47.0,46.0,30.15,SE,134,0.0,1.0,96,0.00,,,0.00,weatherlink.com 1.10,2013-10-08 07:10:00,
2013-10-08 03:25:00,46.9,46.0,30.15,SE,134,0.0,1.0,96,0.00,,,0.00,weatherlink.com 1.10,2013-10-08 07:25:00,
2013-10-08 03:40:00,46.5,46.0,30.15,SE,134,0.0,1.0,96,0.00,,,0.00,weatherlink.com 1.10,2013-10-08 07:40:00,
2013-10-08 03:55:00,46.3,46.0,30.15,SE,134,0.0,1.0,97,0.00,,,0.00,weatherlink.com 1.10,2013-10-08 07:55:00,
2013-10-08 04:11:00,46.3,46.0,30.15,SE,134,0.0,1.0,97,0.00,,,0.00,weatherlink.com 1.10,2013-10-08 08:11:00,
2013-10-08 04:26:00,46.5,46.0,30.15,SSE,153,1.0,2.0,97,0.00,,,0.00,weatherlink.com 1.10,2013-10-08 08:26:00,
2013-10-08 04:41:00,46.6,46.0,30.16,ESE,104,0.0,2.0,96,0.00,,,0.00,weatherlink.com 1.10,2013-10-08 08:41:00,
2013-10-08 04:56:00,47.1,46.0,30.16,SSE,153,2.0,3.0,95,0.00,,,0.00,weatherlink.com 1.10,2013-10-08 08:56:00,
2013-10-08 05:11:00,47.2,46.0,30.17,SSE,160,2.0,2.0,94,0.00,,,0.00,weatherlink.com 1.10,2013-10-08 09:11:00,
2013-10-08 05:26:00,47.7,46.0,30.18,SSE,153,1.0,2.0,95,0.00,,,0.00,weatherlink.com 1.10,2013-10-08 09:26:00,
2013-10-08 05:41:00,48.4,47.0,30.18,SSE,160,0.0,2.0,93,0.00,,,0.00,weatherlink.com 1.10,2013-10-08 09:41:00,
2013-10-08 05:56:00,48.6,47.0,30.19,SSE,160,0.0,1.0,93,0.00,,,0.00,weatherlink.com 1.10,2013-10-08 09:56:00,
2013-10-08 06:11:00,48.7,47.0,30.19,SSE,160,0.0,2.0,92,0.00,,,0.00,weatherlink.com 1.10,2013-10-08 10:11:00,
2013-10-08 06:26:00,48.3,47.0,30.20,SSE,159,0.0,0.0,94,0.00,,,0.00,weatherlink.com 1.10,2013-10-08 10:26:00,
2013-10-08 06:41:00,47.9,47.0,30.20,SSE,159,0.0,0.0,96,0.00,,,0.00,weatherlink.com 1.10,2013-10-08 10:41:00,
2013-10-08 06:56:00,47.8,47.0,30.20,SSE,160,1.0,1.0,96,0.00,,,0.00,weatherlink.com 1.10,2013-10-08 10:56:00,
2013-10-08 07:11:00,47.0,46.0,30.21,SSE,160,0.0,0.0,97,0.00,,,0.00,weatherlink.com 1.10,2013-10-08 11:11:00,
2013-10-08 07:26:00,47.6,47.0,30.22,SSE,159,0.0,0.0,97,0.00,,,0.00,weatherlink.com 1.10,2013-10-08 11:26:00,
2013-10-08 07:41:00,47.7,47.0,30.22,SSE,159,0.0,0.0,97,0.00,,,0.00,weatherlink.com 1.10,2013-10-08 11:41:00,
2013-10-08 07:56:00,47.4,47.0,30.23,SSE,160,0.0,0.0,97,0.00,,,0.00,weatherlink.com 1.10,2013-10-08 11:56:00,
2013-10-08 08:11:00,47.8,47.0,30.23,SSE,160,0.0,1.0,98,0.00,,,0.00,weatherlink.com 1.10,2013-10-08 12:11:00,
2013-10-08 08:26:00,47.8,47.0,30.24,SSE,159,0.0,0.0,97,0.00,,,0.00,weatherlink.com 1.10,2013-10-08 12:26:00,
2013-10-08 08:41:00,48.2,47.0,30.24,SSE,158,0.0,0.0,97,0.00,,,0.00,weatherlink.com 1.10,2013-10-08 12:41:00,
2013-10-08 08:56:00,48.0,47.0,30.25,SSE,159,0.0,1.0,97,0.00,,,0.00,weatherlink.com 1.10,2013-10-08 12:56:00,
2013-10-08 09:11:00,48.2,47.0,30.25,SSW,211,0.0,0.0,97,0.00,,,0.00,weatherlink.com 1.10,2013-10-08 13:11:00,
2013-10-08 09:26:00,48.5,48.0,30.26,WNW,298,1.0,4.0,98,0.00,,,0.00,weatherlink.com 1.10,2013-10-08 13:26:00,
2013-10-08 09:41:00,48.7,48.0,30.27,SSE,154,0.0,2.0,97,0.00,,,0.00,weatherlink.com 1.10,2013-10-08 13:41:00,
2013-10-08 09:56:00,49.2,48.0,30.27,West,267,0.0,2.0,97,0.00,,,0.00,weatherlink.com 1.10,2013-10-08 13:56:00,
2013-10-08 10:11:00,50.1,49.0,30.28,West,269,0.0,2.0,96,0.00,,,0.00,weatherlink.com 1.10,2013-10-08 14:11:00,
2013-10-08 10:26:00,51.3,50.0,30.28,SW,229,1.0,1.0,95,0.00,,,0.00,weatherlink.com 1.10,2013-10-08 14:26:00,
2013-10-08 10:41:00,53.2,51.0,30.27,SW,227,0.0,1.0,91,0.00,,,0.00,weatherlink.com 1.10,2013-10-08 14:41:00,
2013-10-08 10:56:00,55.9,50.0,30.27,South,187,1.0,5.0,81,0.00,,,0.00,weatherlink.com 1.10,2013-10-08 14:56:00,
2013-10-08 11:12:00,57.9,52.0,30.27,SSE,159,0.0,2.0,80,0.00,,,0.00,weatherlink.com 1.10,2013-10-08 15:12:00,
2013-10-08 11:27:00,60.0,55.0,30.27,South,174,0.0,1.0,82,0.00,,,0.00,weatherlink.com 1.10,2013-10-08 15:27:00,
2013-10-08 11:42:00,61.9,55.0,30.27,NW,324,0.0,1.0,77,0.00,,,0.00,weatherlink.com 1.10,2013-10-08 15:42:00,
2013-10-08 11:57:00,63.3,55.0,30.27,South,189,0.0,2.0,74,0.00,,,0.00,weatherlink.com 1.10,2013-10-08 15:57:00,
2013-10-08 12:12:00,64.3,56.0,30.27,South,188,0.0,1.0,75,0.00,,,0.00,weatherlink.com 1.10,2013-10-08 16:12:00,
2013-10-08 12:27:00,65.4,55.0,30.26,South,173,0.0,1.0,68,0.00,,,0.00,weatherlink.com 1.10,2013-10-08 16:27:00,
2013-10-08 12:42:00,66.0,53.0,30.26,South,169,1.0,3.0,64,0.00,,,0.00,weatherlink.com 1.10,2013-10-08 16:42:00,
2013-10-08 12:57:00,67.0,57.0,30.26,SSE,149,1.0,1.0,70,0.00,,,0.00,weatherlink.com 1.10,2013-10-08 16:57:00,
2013-10-08 13:12:00,67.8,57.0,30.25,SE,142,0.0,1.0,68,0.00,,,0.00,weatherlink.com 1.10,2013-10-08 17:12:00,
2013-10-08 13:27:00,67.2,56.0,30.25,SSW,201,0.0,1.0,68,0.00,,,0.00,weatherlink.com 1.10,2013-10-08 17:27:00,
2013-10-08 13:42:00,68.2,58.0,30.24,SSW,201,0.0,1.0,70,0.00,,,0.00,weatherlink.com 1.10,2013-10-08 17:42:00,
2013-10-08 13:57:00,68.7,56.0,30.23,SSW,201,0.0,1.0,65,0.00,,,0.00,weatherlink.com 1.10,2013-10-08 17:57:00,
2013-10-08 14:12:00,68.7,59.0,30.22,SSW,201,0.0,0.0,70,0.00,,,0.00,weatherlink.com 1.10,2013-10-08 18:12:00,
2013-10-08 14:27:00,69.1,59.0,30.22,SSW,193,0.0,2.0,69,0.00,,,0.00,weatherlink.com 1.10,2013-10-08 18:27:00,
2013-10-08 14:42:00,68.6,58.0,30.22,SSE,165,2.0,2.0,68,0.00,,,0.00,weatherlink.com 1.10,2013-10-08 18:42:00,
2013-10-08 14:57:00,67.9,58.0,30.21,SSE,156,0.0,1.0,70,0.00,,,0.00,weatherlink.com 1.10,2013-10-08 18:57:00,
2013-10-08 15:12:00,67.6,58.0,30.21,SSW,193,0.0,2.0,71,0.00,,,0.00,weatherlink.com 1.10,2013-10-08 19:12:00,
2013-10-08 15:27:00,66.4,58.0,30.21,SSW,193,1.0,2.0,73,0.00,,,0.00,weatherlink.com 1.10,2013-10-08 19:27:00,
2013-10-08 15:42:00,64.2,58.0,30.21,South,170,2.0,2.0,80,0.00,,,0.00,weatherlink.com 1.10,2013-10-08 19:42:00,
2013-10-08 15:57:00,62.9,58.0,30.21,SSE,160,2.0,2.0,83,0.00,,,0.00,weatherlink.com 1.10,2013-10-08 19:57:00,
2013-10-08 16:12:00,62.5,58.0,30.22,SSE,158,2.0,2.0,84,0.00,,,0.00,weatherlink.com 1.10,2013-10-08 20:12:00,
2013-10-08 16:27:00,62.2,58.0,30.22,SSE,158,1.0,3.0,86,0.00,,,0.00,weatherlink.com 1.10,2013-10-08 20:27:00,
2013-10-08 16:42:00,62.6,57.0,30.22,SSW,195,1.0,2.0,82,0.00,,,0.00,weatherlink.com 1.10,2013-10-08 20:42:00,
2013-10-08 16:57:00,62.0,56.0,30.22,SW,229,0.0,2.0,80,0.00,,,0.00,weatherlink.com 1.10,2013-10-08 20:57:00,
2013-10-08 17:12:00,61.8,55.0,30.22,SW,236,3.0,3.0,77,0.00,,,0.00,weatherlink.com 1.10,2013-10-08 21:12:00,
2013-10-08 17:27:00,61.8,54.0,30.23,WSW,250,2.0,3.0,76,0.00,,,0.00,weatherlink.com 1.10,2013-10-08 21:27:00,
2013-10-08 17:42:00,61.4,53.0,30.23,SSE,153,3.0,5.0,75,0.00,,,0.00,weatherlink.com 1.10,2013-10-08 21:42:00,
2013-10-08 17:57:00,61.3,54.0,30.24,East,93,2.0,5.0,76,0.00,,,0.00,weatherlink.com 1.10,2013-10-08 21:57:00,
2013-10-08 18:12:00,60.5,53.0,30.24,SSE,162,1.0,5.0,76,0.00,,,0.00,weatherlink.com 1.10,2013-10-08 22:12:00,
2013-10-08 18:27:00,59.6,53.0,30.25,SE,144,0.0,4.0,78,0.00,,,0.00,weatherlink.com 1.10,2013-10-08 22:27:00,
2013-10-08 18:42:00,58.9,53.0,30.25,South,174,0.0,3.0,80,0.00,,,0.00,weatherlink.com 1.10,2013-10-08 22:42:00,
2013-10-08 18:57:00,57.9,51.0,30.25,South,169,2.0,3.0,77,0.00,,,0.00,weatherlink.com 1.10,2013-10-08 22:57:00,
2013-10-08 19:12:00,57.0,51.0,30.26,SSW,207,2.0,3.0,81,0.00,,,0.00,weatherlink.com 1.10,2013-10-08 23:12:00,
2013-10-08 19:27:00,56.2,50.0,30.27,SSE,158,1.0,5.0,79,0.00,,,0.00,weatherlink.com 1.10,2013-10-08 23:27:00,
2013-10-08 19:42:00,55.9,50.0,30.27,SE,129,1.0,5.0,79,0.00,,,0.00,weatherlink.com 1.10,2013-10-08 23:42:00,
2013-10-08 19:57:00,54.9,50.0,30.28,SSE,149,1.0,2.0,83,0.00,,,0.00,weatherlink.com 1.10,2013-10-08 23:57:00,
2013-10-08 20:12:00,54.0,50.0,30.28,WSW,248,4.0,5.0,87,0.00,,,0.00,weatherlink.com 1.10,2013-10-09 00:12:00,
2013-10-08 20:27:00,53.6,50.0,30.28,SSE,155,0.0,1.0,86,0.00,,,0.00,weatherlink.com 1.10,2013-10-09 00:27:00,
2013-10-08 20:42:00,53.0,49.0,30.29,SSE,155,0.0,2.0,86,0.00,,,0.00,weatherlink.com 1.10,2013-10-09 00:42:00,
2013-10-08 20:57:00,53.3,50.0,30.29,South,175,1.0,2.0,87,0.00,,,0.00,weatherlink.com 1.10,2013-10-09 00:57:00,
2013-10-08 21:12:00,52.9,50.0,30.30,South,173,0.0,2.0,88,0.00,,,0.00,weatherlink.com 1.10,2013-10-09 01:12:00,
2013-10-08 21:28:00,53.4,49.0,30.31,SW,222,3.0,5.0,84,0.00,,,0.00,weatherlink.com 1.10,2013-10-09 01:28:00,
2013-10-08 21:43:00,53.9,50.0,30.32,SSW,200,0.0,3.0,85,0.00,,,0.00,weatherlink.com 1.10,2013-10-09 01:43:00,
2013-10-08 21:58:00,53.9,50.0,30.32,West,270,1.0,5.0,86,0.00,,,0.00,weatherlink.com 1.10,2013-10-09 01:58:00,
2013-10-08 22:13:00,53.2,50.0,30.32,NNW,333,1.0,1.0,88,0.00,,,0.00,weatherlink.com 1.10,2013-10-09 02:13:00,
2013-10-08 22:28:00,52.2,49.0,30.32,SSW,192,2.0,2.0,89,0.00,,,0.00,weatherlink.com 1.10,2013-10-09 02:28:00,
2013-10-08 22:43:00,52.3,50.0,30.32,SSE,147,0.0,3.0,91,0.00,,,0.00,weatherlink.com 1.10,2013-10-09 02:43:00,
2013-10-08 22:58:00,52.5,49.0,30.32,SW,229,0.0,1.0,89,0.00,,,0.00,weatherlink.com 1.10,2013-10-09 02:58:00,
2013-10-08 23:13:00,52.9,50.0,30.32,WNW,290,1.0,3.0,90,0.00,,,0.00,weatherlink.com 1.10,2013-10-09 03:13:00,
2013-10-08 23:28:00,52.8,50.0,30.32,SSE,160,1.0,2.0,89,0.00,,,0.00,weatherlink.com 1.10,2013-10-09 03:28:00,
2013-10-08 23:43:00,52.3,50.0,30.31,SW,218,2.0,4.0,91,0.00,,,0.00,weatherlink.com 1.10,2013-10-09 03:43:00,
2013-10-08 23:58:00,52.0,49.0,30.31,South,169,1.0,3.0,90,0.00,,,0.00,weatherlink.com 1.10,2013-10-09 03:58:00,